Regional Weather Roundup
Issued by NWS Green Bay, WI

Home | Current Version | Previous Version | Graphics & Text | Print | Product List | Glossary Off
Versions: 1 2 3 4 5 6 7 8 9 10 11 12 13 14 15 16 17 18 19 20 21 22 23 24 25 26 27 28 29 30 31 32 33 34 35 36 37 38 39 40 41 42 43 44 45 46 47 48 49 50

042
ASUS43 KGRB 271300
RWRGRB

NORTH-CENTRAL AND NORTHEAST WISCONSIN REGIONAL WEATHER ROUNDUP
NATIONAL WEATHER SERVICE GREEN BAY WI
800 AM CDT TUE JUN 27 2017

WIZ005-009-010>012-018-019-271400-
NORTH CENTRAL WISCONSIN

CITY           SKY/WX    TMP DP  RH WIND       PRES   REMARKS
IRONWOOD       SUNNY     58  48  69 W8        30.05R
MANITOWISH WTR NOT AVBL
ARBOR VITAE    NOT AVBL
EAGLE RIVER    NOT AVBL
LAND O LAKES   SUNNY     56  49  75 W3        30.07R
RHINELANDER    SUNNY     55  50  83 W8        30.07R
PHILLIPS       SUNNY     55  51  84 W5        30.07R
ANTIGO         NOT AVBL
TOMAHAWK       NOT AVBL
MERRILL        SUNNY     55  50  81 W6        30.08R
$$

WIZ013-073-271400-
NORTHEAST WISCONSIN

CITY           SKY/WX    TMP DP  RH WIND       PRES   REMARKS
IRON MOUNTAIN  SUNNY     56  47  71 NW5       30.03S
MARINETTE      SUNNY     57  50  77 N6        30.05R
$$

WIZ017-030-035>037-045-271400-
CENTRAL WISCONSIN

CITY           SKY/WX    TMP DP  RH WIND       PRES   REMARKS
MEDFORD        NOT AVBL
WAUSAU         SUNNY     58  49  72 NW8       30.07R
MOSINEE        MOSUNNY   57  50  77 W7        30.10R
MARSHFIELD     SUNNY     58  48  69 W9        30.09R
WISC RAPIDS    SUNNY     59  49  69 W8        30.11R
STEVENS POINT  NOT AVBL
WAUPACA        MOSUNNY   60  50  68 W8        30.09S
SHAWANO        NOT AVBL
CLINTONVILLE   PTSUNNY   54  46  76 CALM      30.08R
WAUTOMA        SUNNY     61  50  67 W8        30.11R
$$

WIZ038-039-048-051-271400-
FOX VALLEY

CITY           SKY/WX    TMP DP  RH WIND       PRES   REMARKS
NWS GREEN BAY  SUNNY     59  53  80 W6        30.07R
APPLETON       MOSUNNY   55  52  88 W9        30.07R
OSHKOSH        SUNNY     58  49  72 W7        30.08R
FOND DU LAC    SUNNY     60  48  64 W7        30.09S
$$

WIZ022-050-052-271400-
EAST CENTRAL WISCONSIN

CITY           SKY/WX    TMP DP  RH WIND       PRES   REMARKS
EPHRAIM        FAIR      56  49  76 W5        30.03R
WASHINGTON ISL NOT AVBL
STURGEON BAY     N/A     58  50  75 MISG        N/A
MANITOWOC      NOT AVBL
SHEBOYGAN      SUNNY     59  53  80 W7        30.08R
$$

LMZ563-521-522-541>543-271400-
LAKESHORE

STATION/POSITION TIME  TEMP    WIND        PRES    VSBY  WAVE
                       AIR SEA DIR/SP/G                  HT/PER
                 (UTC) (F)     (DEG/KT/KT) (MB)    (MI)  (FT/S)
SHEBOYGAN LKSHOR 1200   56     270/ 12/ 14 1018.0R
KEWAUNEE LKSHORE 1230   56     290/  5/  9 1017.2R
NORTHPORT PIER   1240   59     300/  8/ 12 1016.6R
N MID LAKE BUOY  1150   56 54  290/  6/  8 1016.7R         1/ 3
S GREEN BAY BUOY 1230   56     280/  6/ 10 1017.2R
CHAMBERS ISLAND  1230   59     280/  3/  5 1016.6R
MENOMINEE LKSHOR 1230          280/  5/ 10 1016.3R
$$




USA.gov is the U.S. government's official web portal to all federal, state and local government web resources and services.